Regional Weather Roundup
Issued by NWS

Home | Current Version | Previous Version | Text Only | Print | Product List | Glossary Off
Versions: 1 2 3 4 5 6 7 8 9 10 11 12 13 14 15 16 17 18 19 20 21 22 23 24 25 26 27 28 29 30 31 32 33 34 35 36 37 38 39 40 41 42 43 44 45 46 47 48 49 50

008
ASUS43 KOAX 221902
RWRNE

WEATHER ROUNDUP FOR NEBRASKA
NATIONAL WEATHER SERVICE OMAHA NE
200 PM CDT TUE MAY 22 2018

NOTES: SATELLITE DATA IS BEING USED TO AUGMENT CLOUD COVER ABOVE
       12000 FEET.
       "FAIR" INDICATES FEW OR NO CLOUDS BELOW 12,000 FEET WITH NO
       SIGNIFICANT WEATHER AND/OR OBSTRUCTIONS TO VISIBILITY.


NEZ001>004-019>022-054>056-222000-
NEBRASKA PANHANDLE

CITY           SKY/WX    TMP DP  RH WIND       PRES   REMARKS
SCOTTSBLUFF    SUNNY     79  61  53 SE15      29.92F
ALLIANCE       MOSUNNY   80  56  43 SE13      29.93F
CHADRON        MOSUNNY   81  59  47 NE8       29.91F
GORDON         FAIR      81  54  39 SE12G17   29.94F
KIMBALL        MOSUNNY   74  51  44 SE15      29.97S
SIDNEY         PTSUNNY   76  51  41 SE16G22   29.95F
$$

NEZ057>060-069>072-079>082-222000-
SOUTHWEST NEBRASKA

CITY           SKY/WX    TMP DP  RH WIND       PRES   REMARKS
NORTH PLATTE   CLOUDY    79  58  48 VRB7      29.95S
IMPERIAL       CLOUDY    83  51  33 SE15G26   29.92F
LEXINGTON      CLOUDY    82  64  53 SE7       29.95F
MCCOOK         PTSUNNY   82  59  45 S13G22    29.92F
OGALLALA       CLOUDY    81  52  36 SE15      29.94F
$$

NEZ005>010-023>029-035>040-094-222000-
NORTH CENTRAL NEBRASKA

CITY           SKY/WX    TMP DP  RH WIND       PRES   REMARKS
VALENTINE      SUNNY     82  63  52 SE10      29.93F
AINSWORTH      SUNNY     78  66  66 SE13      29.95S
BROKEN BOW     CLOUDY    80  61  52 S9        29.94F
O`NEILL        MOSUNNY   78  65  64 SE5       29.95F
ORD            CLOUDY    79  64  60 S10       29.92F
THEDFORD       PTSUNNY   82  61  49 SE8       29.95S
$$

NEZ041-046>049-061>064-073>077-083>087-222000-
SOUTH CENTRAL NEBRASKA

CITY           SKY/WX    TMP DP  RH WIND       PRES   REMARKS
GRAND ISLAND   CLOUDY    83  65  54 SW13G22   29.95F
AURORA         CLOUDY    83  64  54 S12G20    29.95F
HASTINGS       MOSUNNY   84  65  52 S9        29.96F
HEBRON         MOSUNNY   86  63  45 S15       29.96F
HOLDREGE       MOSUNNY   82  63  51 S12       29.95F
KEARNEY        PTSUNNY   81  64  56 S8        29.96F
YORK           MOSUNNY   84  68  58 S13       29.95F
$$

NEZ011>018-030>034-042>045-222000-
NORTHEAST NEBRASKA

CITY           SKY/WX    TMP DP  RH WIND       PRES   REMARKS
NORFOLK        PTSUNNY   79  68  69 E14G22    29.92F
ALBION         MOSUNNY   80  66  62 S13       29.94F
BLAIR          CLOUDY    78  65  62 SE16      29.98F
COLUMBUS       CLOUDY    84  65  52 S16G26    29.95F
FREMONT        MOSUNNY   80  68  67 SE18G24   29.98F
TEKAMAH        MOSUNNY   76  67  73 SE16G26   29.97S
WAYNE          CLOUDY    74  73  96 S16       29.96F
$$

NEZ050>053-065>068-078-088>093-222000-
SOUTHEAST NEBRASKA

CITY           SKY/WX    TMP DP  RH WIND       PRES   REMARKS
LINCOLN        CLOUDY    83  65  54 S16       29.97F
OMAHA EPPLEY   CLOUDY    79  64  60 S14       29.97F
BEATRICE       MOSUNNY   87  65  47 S14G20    29.97F
FALLS CITY     CLOUDY    87  60  40 E10       30.00F
NEBRASKA CITY  PTSUNNY   81  64  56 SE12G23   30.00F
PLATTSMOUTH    MOSUNNY   74  66  76 SE9       30.00F
$$

NEZ044-045-051>053-067-222000-
OMAHA AREA

CITY           SKY/WX    TMP DP  RH WIND       PRES   REMARKS
OMAHA EPPLEY   CLOUDY    79  64  60 S14       29.97F
BLAIR          CLOUDY    78  65  62 SE16      29.98F
FREMONT        MOSUNNY   80  68  67 SE18G24   29.98F
MILLARD        CLOUDY    76  64  65 SE16      29.98F
OFFUTT AFB     PTSUNNY   77  64  63 SE12      29.98F
PLATTSMOUTH    MOSUNNY   74  66  76 SE9       30.00F
WAHOO          FAIR      80  65  60 SE22G30   29.98F
$$




USA.gov is the U.S. government's official web portal to all federal, state and local government web resources and services.